EW2142 Weather Reports


Display with metric or nautical units.
time (UTC)temp
F
wind
direction
speed
MPH
gust
MPH
rain 1hr
in
rain 24hr
in
rain mn
in
humidity
%
barometer
mb
20260504210523 48 256 0.0 4.0 0.00 0.09 0.09 39 1008.3
20260504210003 48 193 0.0 5.0 0.00 0.09 0.09 40 1008.2
20260504205524 48 207 0.0 5.0 0.00 0.09 0.09 40 1008.2
20260504205023 48 262 0.0 3.0 0.00 0.09 0.09 39 1008.3
20260504204503 48 251 0.0 4.0 0.00 0.09 0.09 39 1008.3
20260504204003 48 292 0.0 5.0 0.00 0.09 0.09 40 1008.3
20260504203524 48 295 1.0 5.0 0.00 0.09 0.09 41 1008.3
20260504203003 48 300 1.0 6.0 0.00 0.09 0.09 43 1008.3
20260504202503 48 296 1.0 6.0 0.00 0.09 0.09 44 1008.3
20260504202003 48 292 1.0 6.0 0.00 0.09 0.09 45 1008.3
20260504201503 49 306 1.0 6.0 0.00 0.09 0.09 47 1008.4
20260504201024 49 307 1.0 6.0 0.00 0.09 0.09 48 1008.3
20260504200503 48 311 1.0 10.0 0.00 0.09 0.09 50 1008.5
20260504200003 49 275 1.0 7.0 0.00 0.09 0.09 51 1008.4
20260504195502 48 221 1.0 6.0 0.00 0.09 0.09 53 1008.4
20260504195003 48 247 1.0 6.0 0.00 0.09 0.09 54 1008.5
20260504194503 48 281 1.0 5.0 0.00 0.09 0.09 54 1008.5
20260504194003 48 284 1.0 5.0 0.00 0.09 0.09 55 1008.5
20260504193503 48 288 1.0 4.0 0.00 0.09 0.09 55 1008.5
20260504193024 48 218 0.0 6.0 0.00 0.09 0.09 56 1008.5
20260504192524 49 254 1.0 6.0 0.00 0.09 0.09 57 1008.5
20260504192003 48 297 1.0 4.0 0.00 0.09 0.09 58 1008.5
20260504191524 49 287 1.0 4.0 0.00 0.09 0.09 58 1008.5
20260504191003 49 292 1.0 4.0 0.00 0.09 0.09 59 1008.4
20260504190524 49 300 1.0 4.0 0.00 0.09 0.09 59 1008.4
20260504190003 49 293 1.0 3.0 0.00 0.09 0.09 59 1008.3
20260504185502 49 290 1.0 3.0 0.00 0.09 0.09 60 1008.4
20260504185003 49 291 1.0 5.0 0.00 0.09 0.09 61 1008.4
20260504184503 49 282 1.0 5.0 0.00 0.09 0.09 62 1008.4
20260504184003 49 259 1.0 6.0 0.00 0.09 0.09 63 1008.3
20260504183503 49 285 1.0 9.0 0.00 0.09 0.09 64 1008.3
20260504183024 49 293 1.0 9.0 0.00 0.09 0.09 65 1008.4
20260504182503 49 285 1.0 6.0 0.00 0.09 0.09 66 1008.3
20260504182003 49 265 1.0 6.0 0.00 0.09 0.09 66 1008.4
20260504181503 50 233 1.0 6.0 0.00 0.09 0.09 67 1008.3
20260504181003 50 298 1.0 5.0 0.00 0.09 0.09 67 1008.2
20260504180503 50 296 1.0 5.0 0.00 0.09 0.09 68 1008.1
20260504180003 51 277 1.0 5.0 0.00 0.09 0.09 68 1008.1
20260504175502 52 282 1.0 6.0 0.00 0.09 0.09 68 1008.1
20260504175003 52 275 1.0 6.0 0.00 0.09 0.09 68 1008.2
20260504174503 52 283 1.0 6.0 0.00 0.09 0.09 68 1008.1
20260504174024 53 266 1.0 8.0 0.00 0.09 0.09 68 1008.2
20260504173503 53 264 1.0 8.0 0.00 0.09 0.09 68 1008.1
20260504173003 53 278 1.0 4.0 0.00 0.09 0.09 68 1008.2
20260504172503 54 297 1.0 6.0 0.00 0.09 0.09 68 1008.2
20260504172003 54 302 1.0 6.0 0.00 0.09 0.09 68 1008.2
20260504171503 54 301 1.0 4.0 0.00 0.09 0.09 68 1008.2
20260504171024 54 299 1.0 3.0 0.00 0.09 0.09 68 1008.1
20260504170503 54 295 1.0 7.0 0.00 0.09 0.09 68 1008.1
20260504151003 58 287 2.0 6.0 0.00 0.09 0.09 48 1008.2
20260504150503 58 277 2.0 6.0 0.00 0.09 0.09 46 1008.2
20260504141003 58 262 1.0 6.0 0.00 0.09 0.09 48 1007.9
20260504140503 58 249 1.0 4.0 0.00 0.09 0.09 51 1008.0
20260504130503 58 233 1.0 6.0 0.00 0.09 0.09 62 1007.7
20260504110503 56 294 1.0 7.0 0.00 0.09 0.09 64 1006.5
20260504100503 54 300 1.0 5.0 0.00 0.09 0.09 63 1006.3
20260504082003 52 299 1.0 6.0 0.01 0.09 0.09 59 1005.6
20260504081503 52 293 1.0 6.0 0.01 0.09 0.09 60 1005.6
20260504081003 52 287 1.0 4.0 0.01 0.09 0.09 57 1005.4
20260504080503 52 297 1.0 5.0 0.01 0.09 0.09 59 1005.3
20260504050503 46 0 0.0 0.0 0.00 0.09 0.09 1 1004.5
20260504050003 46 0 0.0 0.0 0.00 0.09 0.09 1 1004.5
20260504045503 46 0 0.0 0.0 0.00 0.09 0.09 1 1004.5
20260504045023 46 0 0.0 0.0 0.00 0.09 0.09 1 1004.4
20260504044503 46 0 0.0 0.0 0.00 0.09 0.09 1 1004.5
20260504044003 45 0 0.0 0.0 0.00 0.09 0.09 1 1004.4
20260504043502 45 0 0.0 0.0 0.00 0.09 0.09 1 1004.4
20260504043003 45 0 0.0 0.0 0.00 0.09 0.09 1 1004.3
20260504042524 45 136 0.0 1.0 0.00 0.09 0.09 1 1004.4
20260504042003 45 136 0.0 1.0 0.00 0.09 0.09 1 1004.5
20260504041524 45 1 0.0 1.0 0.00 0.09 0.09 1 1004.5
20260504041003 45 1 0.0 1.0 0.00 0.09 0.09 1 1004.6
20260504040503 46 0 0.0 0.0 0.00 0.09 0.09 1 1004.5
20260504040003 46 0 0.0 0.0 0.00 0.09 0.09 1 1004.7
20260504035524 46 0 0.0 0.0 0.00 0.09 0.09 1 1004.7
20260504035003 46 0 0.0 0.0 0.00 0.09 0.09 1 1004.7
20260504034502 46 0 0.0 0.0 0.00 0.09 0.09 1 1004.7
20260504034003 46 0 0.0 0.0 0.00 0.09 0.09 1 1004.7
20260504033503 46 319 0.0 1.0 0.00 0.09 0.09 1 1004.7
20260504033024 46 312 0.0 1.0 0.00 0.09 0.09 1 1004.7
20260504032524 46 284 0.0 1.0 0.00 0.09 0.09 1 1004.7
20260504032003 47 0 0.0 0.0 0.00 0.09 0.09 1 1004.7
20260504031524 47 0 0.0 0.0 0.01 0.09 0.09 1 1004.6
20260504031003 47 0 0.0 0.0 0.01 0.09 0.09 1 1004.5
20260504030503 47 0 0.0 0.0 0.01 0.09 0.09 1 1004.7
20260504030003 47 0 0.0 0.0 0.01 0.09 0.09 1 1004.7
20260504025524 47 0 0.0 0.0 0.02 0.09 0.09 1 1004.7
20260504025003 47 0 0.0 0.0 0.02 0.09 0.09 1 1004.7
20260504024502 47 0 0.0 0.0 0.02 0.09 0.09 1 1004.9
20260504024024 47 0 0.0 0.0 0.02 0.09 0.09 1 1004.9
20260504023503 47 0 0.0 0.0 0.02 0.09 0.09 1 1004.9
20260504023003 47 0 0.0 0.0 0.02 0.09 0.09 1 1005.0
20260504022503 48 0 0.0 0.0 0.02 0.09 0.09 1 1005.1
20260504022024 48 0 0.0 0.0 0.02 0.09 0.09 1 1005.1
20260504021503 48 169 0.0 1.0 0.02 0.08 0.08 1 1005.1
20260504021003 48 302 0.0 2.0 0.02 0.08 0.08 1 1005.2
20260504020503 49 304 0.0 2.0 0.02 0.08 0.08 1 1005.3
20260504020003 49 0 0.0 0.0 0.02 0.08 0.08 1 1005.3
20260504015503 49 0 0.0 0.0 0.02 0.07 0.07 1 1005.3
20260504015003 49 247 0.0 1.0 0.02 0.07 0.07 1 1005.3
20260504014503 49 246 0.0 1.0 0.02 0.07 0.07 1 1005.3
20260504014003 49 236 0.0 1.0 0.02 0.07 0.07 1 1005.2
20260504013524 49 226 0.0 1.0 0.03 0.07 0.07 1 1005.2
20260504013003 49 0 0.0 0.0 0.03 0.07 0.07 1 1005.3
20260504012503 49 0 0.0 0.0 0.04 0.07 0.07 1 1005.4
20260504012024 49 0 0.0 0.0 0.04 0.07 0.07 1 1005.4
20260504011503 49 0 0.0 0.0 0.03 0.06 0.06 1 1005.3
20260504011003 49 0 0.0 0.0 0.04 0.06 0.06 1 1005.3
20260504010524 49 0 0.0 0.0 0.04 0.06 0.06 1 1005.4
20260504010003 49 0 0.0 0.0 0.04 0.06 0.06 1 1005.4
20260504005503 49 0 0.0 0.0 0.03 0.06 0.06 1 1005.4
20260504005003 49 0 0.0 0.0 0.03 0.06 0.06 1 1005.6
20260504004503 49 0 0.0 0.0 0.02 0.05 0.05 1 1005.6
20260504004003 50 0 0.0 0.0 0.03 0.05 0.05 1 1005.6
20260504003502 50 0 0.0 0.0 0.02 0.04 0.04 1 1005.6
20260504003003 50 0 0.0 0.0 0.02 0.04 0.04 1 1005.6
20260504002503 50 0 0.0 0.0 0.02 0.03 0.03 1 1005.7
20260504002003 50 0 0.0 0.0 0.02 0.03 0.03 1 1005.7
20260504001503 50 0 0.0 0.0 0.02 0.03 0.03 1 1005.7
20260504001003 50 302 0.0 1.0 0.02 0.02 0.02 1 1005.8
20260504000503 50 302 0.0 1.0 0.02 0.02 0.02 1 1005.8
20260504000003 50 0 0.0 0.0 0.02 0.02 0.02 1 1005.8
20260503235503 50 0 0.0 0.0 0.02 0.02 0.02 1 1005.9
20260503235024 50 0 0.0 0.0 0.02 0.02 0.02 1 1005.8
20260503234503 50 137 0.0 1.0 0.02 0.02 0.02 1 1005.9
20260503234003 50 343 0.0 1.0 0.02 0.02 0.02 1 1006.0
20260503233503 50 320 0.0 1.0 0.02 0.02 0.02 1 1006.1
20260503233003 50 295 0.0 1.0 0.02 0.02 0.02 1 1006.1
20260503232503 50 294 0.0 1.0 0.02 0.02 0.02 1 1006.1
20260503232003 50 264 0.0 1.0 0.02 0.02 0.02 1 1006.2
20260503231503 51 264 0.0 1.0 0.01 0.01 0.01 1 1006.3
20260503231003 51 0 0.0 0.0 0.01 0.01 0.01 1 1006.3
20260503230503 51 0 0.0 0.0 0.01 0.01 0.01 1 1006.4
20260503230003 51 0 0.0 0.0 0.01 0.01 0.01 1 1006.4
20260503225503 51 103 0.0 1.0 0.00 0.00 0.00 1 1006.4
20260503225024 51 103 0.0 1.0 0.00 0.00 0.00 1 1006.4
20260503224502 51 103 0.0 1.0 0.00 0.00 0.00 1 1006.5
20260503224023 51 0 0.0 0.0 0.00 0.00 0.00 1 1006.4
20260503223503 51 0 0.0 0.0 0.00 0.00 0.00 1 1006.4
20260503223003 51 0 0.0 0.0 0.00 0.00 0.00 1 1006.4
20260503222503 51 113 0.0 1.0 0.00 0.00 0.00 1 1006.4
20260503222003 51 113 0.0 1.0 0.00 0.00 0.00 1 1006.4
20260503221503 51 0 0.0 0.0 0.00 0.00 0.00 1 1006.4
20260503221003 51 0 0.0 0.0 0.00 0.00 0.00 2 1006.4
20260503220503 51 0 0.0 0.0 0.00 0.00 0.00 3 1006.4
20260503220004 51 0 0.0 0.0 0.00 0.00 0.00 4 1006.5
20260503215503 51 0 0.0 0.0 0.00 0.00 0.00 5 1006.5
20260503215003 51 0 0.0 0.0 0.00 0.00 0.00 5 1006.6
20260503214503 51 0 0.0 0.0 0.00 0.00 0.00 5 1006.7
20260503214003 51 0 0.0 0.0 0.00 0.00 0.00 6 1006.7
20260503213503 51 0 0.0 0.0 0.00 0.00 0.00 9 1006.8
20260503213002 51 0 0.0 0.0 0.00 0.00 0.00 9 1006.8
20260503212503 51 0 0.0 0.0 0.00 0.00 0.00 9 1006.8
20260503212003 51 0 0.0 0.0 0.00 0.00 0.00 12 1006.8
20260503211503 51 0 0.0 0.0 0.00 0.00 0.00 12 1006.9
20260503211003 51 0 0.0 0.0 0.00 0.00 0.00 11 1006.9